Location: Dittersdorf
(50.6431°N, 11.8176°E)
Time: 06:30:10
(UTC+00:00)

Daily predictions for brighter satellites

Satellite Brightness Start Highest point End
(mag) Time Altitude Azimuth Time Altitude Azimuth Time Altitude Azimuth
NOSS 3-4 (A) 3.9 18:21:32 10° NW 18:28:27 87° NE 18:36:06 10° SE
NOSS 3-4 (C) 3.9 18:21:39 10° NW 18:28:33 86° NE 18:36:12 10° SE
Cosmos 1980 Rocket 4.4 18:27:14 10° N 18:29:23 12° NNE 18:31:33 10° NE
STARLINK-1201 3.1 18:26:53 10° WNW 18:30:09 78° NNE 18:33:26 10° ESE
STARLINK-1138 3.9 18:27:44 10° WNW 18:31:52 66° N 18:36:00 10° E
SL-08 RB Rocket 4.0 18:27:31 10° SE 18:31:55 50° ENE 18:36:24 10° N
Cosmos 1437 2.9 18:29:53 10° NNW 18:32:55 68° W 18:35:54 10° S
Cosmos 1818 3.6 18:27:54 10° SSW 18:33:18 67° SE 18:38:44 10° NE
STARLINK-1228 2.6 18:30:38 10° WNW 18:33:24 78° SSW 18:36:11 10° ESE
CZ-4C R/B 4.1 18:29:53 10° NW 18:35:21 29° NNE 18:41:41 10° ENE
STARLINK-1143 3.9 18:32:43 10° WNW 18:36:52 67° N 18:41:00 10° E
Cosmos 1603 3.8 18:32:55 10° SSW 18:38:34 82° WNW 18:44:12 10° NNE
ATLAS CENTAUR R/B 3.6 18:36:52 10° NNW 18:39:02 14° NNE 18:41:08 10° NE
NOSS 3-3 (A) 4.1 18:33:12 10° SW 18:39:12 84° NW 18:46:03 10° NE
NOSS 3-3 (C) 4.1 18:33:18 10° SW 18:39:17 84° NW 18:46:09 10° NE
Cosmos 2184 Rocket 4.1 18:34:28 10° N 18:40:48 89° ENE 18:47:02 10° S
ATLAS 5 CENTAUR R/B 2.3 18:37:32 10° S 18:41:10 29° ESE 18:45:10 10° ENE
Cosmos 2058 Rocket 3.8 18:37:14 10° SSE 18:41:16 33° E 18:45:20 10° NNE
STARLINK-1241 3.8 18:37:44 10° WNW 18:41:53 68° N 18:46:02 10° E
Cosmos 1726 Rocket 3.7 18:42:16 10° S 18:46:34 55° E 18:50:57 10° NNE
STARLINK-1239 3.8 18:42:42 10° WNW 18:46:51 70° NNE 18:50:52 11° E
Meteor 2-17 Rocket 4.5 18:43:15 10° N 18:49:26 71° ENE 18:55:34 10° SSE
Aureole 1 Rocket 4.1 18:43:14 10° S 18:50:23 57° ESE 18:55:59 10° NNE
FREGAT/IRIS 2.9 18:48:52 10° S 18:51:34 59° W 18:54:16 10° NNW
SJ-6B 2.9 18:47:38 10° SSE 18:51:47 86° ENE 18:55:56 10° NNW
Cosmos 1825 Rocket 3.9 18:47:27 10° NNW 18:51:50 68° W 18:56:09 10° S
STARLINK-1240 3.8 18:47:41 10° WNW 18:51:51 72° NNE 18:55:39 12° E
Meteor 1-16 Rocket 4.2 18:46:28 10° S 18:51:54 85° E 18:57:34 10° NNE
Cosmos 921 Rocket 3.1 18:48:58 10° NNW 18:53:06 56° ENE 18:57:14 10° SE
H-2A R/B 2.4 18:50:40 10° S 18:55:49 67° WSW 19:00:52 10° NNW
STARLINK-1216 3.7 18:52:40 10° WNW 18:56:50 74° NNE 19:00:26 13° E
Cosmos 1461 3.2 18:52:34 10° NW 18:57:05 77° SW 19:01:44 10° SSE
USA 234 4.4 18:53:25 10° E 18:57:44 18° ESE 19:02:03 10° SSE
Resurs 01 Rocket 2.2 18:54:20 10° SE 18:58:23 40° ENE 19:02:31 10° N
SeaSat 1 3.1 18:55:45 10° NNE 19:00:38 62° NW 19:05:30 10° SW
ATLAS 2AS CENTAUR R/B 3.2 18:53:07 10° NW 19:00:41 66° SW 19:07:36 10° SSE
Cosmos 2228 3.0 18:57:04 10° S 19:01:23 89° ESE 19:05:47 10° N
Nadezhda 1 Rocket 4.0 18:55:12 10° S 19:01:33 73° E 19:07:53 10° NNE
STARLINK-1237 3.7 18:57:38 10° WNW 19:01:48 76° NNE 19:05:12 15° E
Cosmos 2154 Rocket 4.1 18:57:13 10° N 19:03:38 87° E 19:09:58 10° S
Cosmos 1300 3.6 19:00:32 10° SSE 19:03:49 28° E 19:07:09 10° NNE
SL-8 Rocket 4.5 18:58:25 10° N 19:04:25 42° ENE 19:09:51 12° SE
CZ-2C R/B 3.4 18:59:51 10° S 19:04:38 60° W 19:09:21 10° NNW
Cosmos 2369 Rocket 4.4 19:00:35 10° NW 19:05:05 25° WSW 19:09:32 10° SSW
STARLINK-1202 3.7 19:02:39 10° WNW 19:06:50 78° NNE 19:10:01 17° ESE
USA 186 3.1 19:04:51 10° S 19:07:59 40° W 19:10:58 10° NNW
Ariane Rocket 4.2 19:06:11 10° S 19:10:59 43° W 19:15:50 10° NNW
BREEZE M DEB (TANK) 4.1 19:03:03 10° SW 19:12:13 42° SSE 19:14:50 17° E
Cosmos 1140 Rocket 3.5 19:07:21 10° S 19:12:25 56° ESE 19:17:29 10° NNE
RESURS DK-1 4.1 19:10:18 10° N 19:13:29 21° NE 19:15:51 14° E
SL-4 R/B 1.4 19:10:42 10° WSW 19:14:05 73° SSE 19:16:52 15° ENE
Cosmos 1953 Rocket 4.2 19:09:47 10° NNW 19:14:12 59° W 19:18:37 10° S
Cosmos 1703 4.3 19:11:16 10° NNW 19:15:07 47° W 19:18:56 10° SSW
Cosmos 2058 3.9 19:12:22 10° N 19:15:57 28° ENE 19:17:51 20° ESE
STARLINK-1234 3.5 19:13:40 10° WNW 19:16:32 43° SSW 19:18:03 22° SSE
STARLINK-1246 3.6 19:12:35 10° WNW 19:16:46 84° NNE 19:19:33 20° ESE
Cosmos 1606 Rocket 4.1 19:12:23 10° SSW 19:16:48 63° WNW 19:21:15 10° N
Cosmos 2366 rocket 4.4 19:12:05 10° N 19:17:54 42° ENE 19:22:16 17° SE
Cosmos 1340 Rocket 2.7 19:14:02 10° S 19:18:05 75° E 19:22:07 10° NNE
STARLINK-1209 3.7 19:17:21 10° WNW 19:20:16 40° SSW 19:21:48 22° SSE
STARLINK-1233 3.3 19:17:36 10° WNW 19:20:41 53° SSW 19:22:13 25° SE
STARLINK-1203 3.6 19:16:30 10° WNW 19:20:43 89° NNE 19:23:24 22° ESE
STARLINK-1212 3.3 19:18:03 10° WNW 19:21:07 53° SSW 19:22:37 26° SE
STARLINK-1105 3.3 19:18:29 10° WNW 19:21:33 52° SSW 19:23:04 26° SE
STARLINK-1224 3.6 19:17:35 10° WNW 19:21:46 87° NNE 19:24:21 22° ESE
STARLINK-1206 3.3 19:18:59 10° WNW 19:22:02 52° SSW 19:23:29 26° SE
STARLINK-1247 3.3 19:19:26 10° WNW 19:22:29 51° SSW 19:23:55 26° SE
Cosmos 614 Rocket 4.1 19:17:20 10° SSW 19:22:34 80° WNW 19:27:48 10° NNE
Cosmos 1190 Rocket 3.9 19:17:17 10° SSW 19:22:35 77° ESE 19:27:53 10° NNE
Spot 2 Rocket 4.1 19:19:28 18° SE 19:22:48 41° ENE 19:27:34 10° N
STARLINK-1227 3.3 19:19:51 10° WNW 19:22:55 51° SSW 19:24:22 26° SE
STARLINK-1218 3.3 19:20:20 10° WNW 19:23:23 51° SSW 19:24:47 27° SE
STARLINK-1226 3.3 19:20:46 10° WNW 19:23:49 50° SSW 19:25:13 27° SE
STARLINK-1254 3.3 19:21:12 10° WNW 19:24:16 50° SSW 19:25:40 27° SE
Cosmos 1908 3.9 19:20:54 10° SSW 19:24:43 58° WNW 19:28:35 10° N
STARLINK-1215 3.3 19:21:42 10° WNW 19:24:44 50° SSW 19:26:06 27° SSE
STARLINK-1231 3.3 19:22:08 10° WNW 19:25:11 49° SSW 19:26:31 27° SSE
ERBS 2.5 19:21:50 10° NW 19:25:12 64° NNE 19:26:51 27° ESE
STARLINK-1232 3.4 19:23:03 10° WNW 19:26:05 49° SSW 19:27:24 28° SSE
STARLINK-1217 3.4 19:23:29 10° WNW 19:26:31 48° SSW 19:27:49 28° SSE
STARLINK-1225 3.6 19:22:35 10° WNW 19:26:46 90° ENE 19:29:09 24° ESE
COSMOS 2406 4.5 19:26:21 19° ESE 19:26:47 19° E 19:30:40 10° ENE
STARLINK-1208 3.4 19:23:55 10° WNW 19:26:59 48° SSW 19:28:17 28° SSE
STARLINK-1229 3.4 19:24:24 10° WNW 19:27:26 48° SSW 19:28:41 28° SSE
STARLINK-1271 3.4 19:24:50 10° WNW 19:27:52 47° SSW 19:29:07 28° SSE
STARLINK-1270 3.4 19:25:18 10° WNW 19:28:20 47° SSW 19:29:33 29° SSE
STARLINK-1154 3.4 19:25:45 10° WNW 19:28:46 47° SSW 19:29:59 29° SSE
STARLINK-1197 3.5 19:26:40 10° WNW 19:29:41 46° SSW 19:30:52 29° SSE
STARLINK-1189 3.5 19:27:07 10° WNW 19:30:07 46° SSW 19:31:17 29° SSE
STARLINK-1198 3.5 19:27:35 10° WNW 19:30:35 45° SSW 19:31:44 29° SSE
STARLINK-1188 3.5 19:27:59 10° WNW 19:31:00 45° SSW 19:32:08 30° SSE
SL-24 R/B 3.9 19:27:11 10° NNE 19:31:19 82° WNW 19:35:03 10° SSW
STARLINK-1235 3.8 19:28:43 10° W 19:31:41 37° SSW 19:32:51 26° SSE
STARLINK-1230 3.6 19:27:33 10° WNW 19:31:44 87° SSW 19:33:55 27° ESE
STARLINK-1187 3.7 19:29:07 10° WNW 19:32:07 41° SSW 19:33:16 28° SSE
Cosmos 1076 Rocket 4.0 19:28:15 10° N 19:32:20 42° ENE 19:34:16 26° SE
DMSP B5D2-2 4.0 19:27:07 10° NNE 19:32:21 73° ESE 19:37:35 10° S
STARLINK-1199 3.5 19:29:57 10° WNW 19:32:59 44° SSW 19:34:04 30° SSE
STARLINK-1191 3.6 19:30:25 10° WNW 19:33:26 44° SSW 19:34:30 30° SSE
Cosmos 1943 4.4 19:28:11 10° SW 19:33:37 45° NW 19:39:07 10° NNE
STARLINK-1210 3.6 19:30:52 10° WNW 19:33:53 43° SSW 19:34:56 30° SSE
STARLINK-1221 3.6 19:31:19 10° WNW 19:34:20 43° SSW 19:35:23 30° SSE
STARLINK-1219 3.6 19:31:46 10° WNW 19:34:47 43° SSW 19:35:49 31° SSE
STARLINK-1222 3.6 19:32:14 10° WNW 19:35:14 42° SSW 19:36:15 31° SSE
STARLINK-1211 3.6 19:32:42 10° WNW 19:35:42 42° SSW 19:36:42 31° SSE
STARLINK-1214 3.6 19:33:07 10° WNW 19:36:08 42° SSW 19:37:06 31° SSE
Abrixas rocket 3.1 19:33:37 10° W 19:36:16 29° SSW 19:36:49 27° S
STARLINK-1245 3.6 19:33:37 10° WNW 19:36:35 41° SSW 19:37:31 31° SSE
STARLINK-1243 3.5 19:32:31 10° WNW 19:36:42 84° SSW 19:38:42 30° ESE
STARLINK-1238 3.6 19:34:02 10° WNW 19:37:02 41° SSW 19:37:59 31° SSE
Cosmos 1408 4.1 19:34:16 10° NNE 19:37:06 21° ENE 19:37:26 20° ENE
BREEZE-M DEB (TANK) 4.4 19:32:29 10° WNW 19:37:22 32° SW 19:38:39 22° S
Cosmos 468 Rocket 4.2 19:32:21 10° NNW 19:37:26 53° ENE 19:40:10 26° SE
STARLINK-1205 3.7 19:34:59 10° WNW 19:37:57 40° SSW 19:38:51 31° S
STARLINK-1204 3.7 19:35:26 10° WNW 19:38:24 40° SSW 19:39:16 31° S
STARLINK-29 3.1 19:35:39 10° SW 19:38:45 49° SSE 19:39:26 40° ESE
CZ-2C R/B 2.5 19:36:26 10° NNE 19:41:38 75° ESE 19:46:50 10° S
STARLINK-1236 3.6 19:37:30 10° WNW 19:41:40 80° SSW 19:43:28 33° ESE
STARLINK-60 2.9 19:40:24 10° WSW 19:43:42 87° SSE 19:45:10 30° ENE
SPOT 5 3.9 19:43:20 22° E 19:44:28 25° ENE 19:47:58 10° N
Cosmos 1697 Rocket 3.6 19:40:24 10° NNW 19:45:35 35° NE 19:48:23 22° E
Terra 3.2 19:46:43 20° E 19:48:05 23° ENE 19:51:49 10° N
ERS-1 Rocket 3.7 19:47:11 27° ESE 19:49:05 36° ENE 19:53:40 10° N
Cosmos 407 Rocket 4.1 19:44:13 10° SW 19:49:17 59° WNW 19:54:22 10° NNE
Cosmos 676 Rocket 3.9 19:46:17 10° SSW 19:51:34 82° ESE 19:56:50 10° NNE
STARLINK-1269 3.6 19:47:27 10° WNW 19:51:37 73° SSW 19:53:02 39° SE
Iridium 2 3.6 19:50:40 33° SSE 19:52:13 64° E 19:56:01 10° N
Cosmos 192 4.3 19:50:51 10° NNW 19:55:50 85° ENE 19:58:14 31° SSE
Cosmos-2242 4.2 19:56:38 25° E 19:56:38 25° E 19:59:52 10° NNE
STARLINK-1200 3.6 19:52:26 10° WNW 19:56:34 69° SSW 19:57:48 42° SE
STARLINK-1192 3.7 19:57:26 10° WNW 20:01:33 65° SSW 20:02:36 46° SE
SL-16 R/B 4.4 20:01:11 10° N 20:04:33 16° NNE 20:07:55 10° ENE
COSMOS 2455 3.7 19:59:45 10° NW 20:05:26 44° WSW 20:09:32 18° S
STARLINK-1201 4.3 20:03:20 10° W 20:06:13 29° SW 20:06:17 29° SSW
STARLINK-1244 3.7 20:02:25 10° WNW 20:06:31 62° SSW 20:07:23 48° SSE
Cosmos 1656 3.7 20:03:10 10° NNW 20:08:53 72° ENE 20:11:09 37° SE
MOS 1 Rocket 4.1 20:05:34 10° N 20:10:52 61° WNW 20:16:14 10° SSW
STARLINK-1138 3.8 20:07:24 10° WNW 20:11:29 58° SSW 20:12:10 50° SSE
Cosmos 1356 Rocket 4.1 20:12:13 37° E 20:12:13 37° E 20:15:46 10° NNE
STPSAT 2 (USA 217) 4.4 20:07:27 10° SSW 20:11:55 78° ESE 20:16:26 10° NNE
Cosmos 2322 Rocket 4.4 20:09:01 10° N 20:12:16 15° NNE 20:15:30 10° ENE
Cosmos 1455 3.3 20:13:23 30° ENE 20:13:23 30° ENE 20:16:00 10° NNE
Cosmos 1954 Rocket 4.2 20:08:43 10° SSW 20:13:57 72° WNW 20:19:10 10° NNE
FALCON 9 DEB 3.1 20:11:03 10° WSW 20:14:16 70° SSW 20:14:16 70° SSW
IGS 5A 3.3 20:13:40 52° SSE 20:14:35 77° ENE 20:18:46 10° N
Cosmos 1980 Rocket 3.2 20:10:12 10° NNW 20:15:16 33° NE 20:17:17 26° E
Cosmos 1892 2.6 20:12:28 10° N 20:16:24 88° WSW 20:17:06 59° S
STARLINK-1143 3.8 20:12:23 10° WNW 20:16:27 55° SSW 20:16:57 51° S
ATLAS CENTAUR R/B 2.0 20:15:18 10° NNW 20:19:01 38° NE 20:19:27 37° ENE
STARLINK-52 3.9 20:15:58 10° WSW 20:18:09 40° WSW 20:18:09 40° WSW
Cosmos 1741 Rocket 4.0 20:18:19 36° S 20:20:19 58° ESE 20:25:33 10° NNE
STARLINK-1241 3.9 20:17:25 10° WNW 20:21:27 51° SSW 20:21:46 50° SSW
Mayak 1.2 20:19:32 10° NE 20:19:48 11° ENE 20:19:48 11° ENE
BREEZE M DEB (TANK) 3.5 20:18:37 10° SW 20:22:27 57° SSE 20:34:31 10° ENE
SPOT 1/Viking Rocket 3.5 20:21:22 41° SSE 20:23:14 84° ENE 20:28:30 10° NNW
CARTOSAT-1 3.6 20:22:53 53° E 20:23:21 56° ENE 20:27:36 10° N
Cosmos 1825 2.7 20:20:04 10° N 20:23:21 43° NE 20:23:21 43° NE
CZ-4C R/B 3.2 20:18:39 10° NW 20:25:20 55° NE 20:29:18 29° E
ATLAS 5 CENTAUR R/B 2.5 20:21:20 10° WSW 20:25:31 50° NW 20:30:20 10° NE
STARLINK-1239 4.0 20:22:22 10° WNW 20:26:23 48° SSW 20:26:31 48° SSW
Cosmos 2208 Rocket 4.0 20:21:44 10° NNW 20:26:55 65° ENE 20:28:09 49° ESE
Cosmos 1763 Rocket 3.5 20:24:13 10° NNW 20:29:25 76° WSW 20:30:58 45° S
STARLINK-1240 4.1 20:27:22 10° WNW 20:31:18 45° SW 20:31:18 45° SW
Okean 3 Rocket 3.5 20:28:55 10° N 20:33:20 67° ENE 20:33:36 65° ESE
Resurs 01 Rocket 3.5 20:31:53 13° SSW 20:35:00 26° W 20:38:46 10° NW
Cosmos 1766 Rocket 3.6 20:30:46 10° N 20:35:13 59° ENE 20:35:19 59° E
Cosmos 2218 Rocket 4.5 20:29:35 10° NNW 20:35:39 58° W 20:39:41 22° SSW
Cosmos 540 Rocket 3.5 20:30:50 10° NNW 20:36:00 67° ENE 20:36:54 55° ESE
STARLINK-1216 4.3 20:32:22 10° WNW 20:36:05 42° SW 20:36:05 42° SW
Cosmos 2360 4.5 20:34:07 10° NNW 20:39:44 56° NE 20:41:02 46° E
Iridium 4 Rocket 3.6 20:36:41 10° NNW 20:40:46 51° W 20:41:55 39° SW
STARLINK-1237 4.5 20:37:21 10° WNW 20:40:51 39° SW 20:40:51 39° SW
Cosmos 1814 Rocket 4.0 20:36:19 10° NNW 20:41:42 73° ENE 20:42:40 58° SE
USA 234 3.2 20:35:16 10° ENE 20:41:44 59° SE 20:48:10 10° SW
Landsat 7 4.2 20:42:03 42° SSW 20:43:25 58° W 20:48:09 10° NNW
Cosmos 2278 3.9 20:38:59 10° NNW 20:44:36 57° NE 20:45:43 48° E
Cosmos 2082 Rocket 3.6 20:49:07 24° ENE 20:49:07 24° ENE 20:51:59 10° NE
Cosmos 1812 Rocket 4.5 20:46:09 25° SW 20:48:20 46° WNW 20:52:32 10° N
RESURS DK-1 2.5 20:47:49 10° NW 20:51:45 66° W 20:51:45 66° W
Cosmos 2058 4.4 20:49:14 10° NNW 20:52:52 31° W 20:54:05 26° WSW
SL-4 R/B 2.9 20:50:16 10° W 20:52:28 37° WNW 20:52:28 37° WNW
Cosmos 1833 Rocket 3.0 20:56:28 48° E 20:56:28 48° E 21:01:13 10° NE
ASTEX 1 3.7 20:57:33 51° ENE 20:57:33 51° ENE 21:02:11 10° N
USA 32 4.2 20:52:23 10° N 20:57:37 69° W 20:58:49 51° SSW
Cosmos 2151 3.2 20:54:33 10° NNW 20:58:42 62° W 20:58:42 62° W
Meteor 2-10 Rocket 3.5 20:58:37 62° SSW 20:59:34 90° SSW 21:05:04 10° NNE
Cosmos 1850 Rocket 4.3 21:02:16 28° SW 21:04:59 64° WNW 21:10:10 10° NNE
Cosmos 841 Rocket 3.6 21:02:25 10° NNW 21:07:40 65° WSW 21:08:12 61° SW
COSMOS 2406 3.2 21:08:16 41° SW 21:10:22 83° WNW 21:16:09 10° NNE
Cosmos 1408 4.1 21:08:53 10° NNW 21:11:46 33° WNW 21:11:46 33° WNW
Cosmos 1408 Rocket 3.8 21:11:01 10° N 21:14:53 66° N 21:14:53 66° N
Cosmos 1743 Rocket 4.4 21:13:00 10° N 21:16:28 44° NE 21:16:28 44° NE
Nadezhda 3 Rocket 4.0 21:15:55 53° SSW 21:17:34 83° W 21:23:53 10° N
Cosmos 1535 Rocket 4.3 21:14:22 10° N 21:20:35 81° E 21:21:17 70° SE
SPOT 5 3.5 21:22:33 42° W 21:22:33 42° W 21:26:31 10° NNW
Terra 2.2 21:25:36 57° W 21:25:36 57° W 21:30:13 10° NNW
Cosmos 2369 3.9 21:21:28 10° NW 21:27:00 57° WSW 21:27:19 56° SW
ERS-1 Rocket 4.0 21:27:10 35° WSW 21:27:52 37° W 21:32:33 10° NNW
Cosmos 1697 Rocket 3.0 21:24:17 10° NW 21:29:49 53° WSW 21:30:07 53° WSW
Cosmos 2221 4.0 21:34:15 30° NNE 21:34:15 30° NNE 21:36:38 10° NNE
Cosmos-2242 4.2 21:33:27 37° W 21:33:40 37° WNW 21:37:45 10° N
Cosmos 1934 Rocket 4.0 21:41:15 10° NNW 21:47:27 67° W 21:48:02 63° SW
Cosmos 1455 4.4 21:48:16 22° WNW 21:48:16 22° WNW 21:51:16 10° NNW
SL-16 R/B 2.7 21:44:35 10° NNW 21:50:07 49° NE 21:50:12 49° NE
Cosmos 2360 Rocket 3.6 21:47:06 10° NNW 21:51:58 29° NE 21:53:00 27° ENE
Cosmos 2322 Rocket 2.8 21:52:20 10° NNW 21:57:48 48° NE 21:57:48 48° NE
ATLAS CENTAUR R/B 3.7 21:54:26 10° WNW 21:55:38 17° WNW 21:55:38 17° WNW
Mayak 0.2 21:53:49 10° N 21:56:22 36° N 21:56:22 36° N
Cosmos 1980 Rocket 2.6 21:54:05 10° NW 21:59:03 54° W 21:59:03 54° W
Cosmos 2173 Rocket 4.5 21:56:02 10° N 22:01:44 46° ENE 22:01:44 46° ENE
Meteor 2-3 Rocket 4.4 21:57:35 10° NNW 22:03:04 46° W 22:03:11 46° W
Cosmos 1605 Rocket 3.9 21:57:45 10° NNW 22:03:55 75° W 22:03:58 75° WSW
Thor Agena Rocket 3.9 22:03:49 10° NNE 22:07:59 60° N 22:07:59 60° N
Cosmos 2333 Rocket 4.3 22:06:05 10° NNW 22:10:15 20° NE 22:12:45 16° ENE
ATLAS 5 CENTAUR R/B 4.2 22:07:41 10° WNW 22:11:20 22° N 22:15:23 10° NE
CZ-4C R/B 3.1 22:07:12 10° NW 22:14:10 56° SW 22:14:28 55° SW
ALOS 2 4.0 22:16:03 36° N 22:16:03 36° N 22:18:48 10° N
Meteor 2-2 Rocket 4.4 22:24:52 68° NNW 22:24:52 68° NNW 22:29:51 10° N
USA 234 3.5 22:18:22 10° ENE 22:24:52 68° NNW 22:31:21 10° W
NOSS 2-1 (E) 4.5 22:21:21 10° NW 22:25:56 64° NNE 22:25:56 64° NNE
Cosmos 2082 Rocket 2.6 22:30:55 56° NW 22:30:57 56° NW 22:36:33 10° NNE
Cosmos 1833 Rocket 4.0 22:38:06 29° W 22:39:54 36° NW 22:45:06 10° NNE
Cosmos 2219 Rocket 3.7 22:44:56 10° NNW 22:49:47 29° NE 22:51:00 27° ENE
Cosmos 1607 4.1 22:55:17 68° NW 22:55:17 68° NW 23:01:30 10° NE
Cosmos 2061 Rocket 4.0 22:55:39 10° N 23:01:24 75° NNE 23:01:24 75° NNE
Cosmos 968 Rocket 4.4 23:06:04 46° NNW 23:06:04 46° NNW 23:10:24 10° NNE
Cosmos 2322 4.3 23:07:07 10° NNW 23:12:24 53° NE 23:12:24 53° NE
Cosmos 1459 Rocket 4.3 23:07:16 10° NNW 23:12:56 58° WNW 23:12:56 58° WNW
COSMOS 2428 3.8 23:09:49 10° NNW 23:15:08 38° NE 23:15:50 37° ENE
SL-16 R/B 4.1 23:17:35 22° E 23:19:54 28° NE 23:25:01 10° N
Cosmos 2233 Rocket 4.2 23:17:42 10° N 23:23:39 66° ENE 23:23:39 66° ENE
Cosmos 2016 Rocket 4.3 23:25:58 10° NNW 23:31:34 59° WNW 23:31:34 59° WNW
Cosmos 1725 Rocket 4.1 23:26:25 10° NNW 23:32:04 68° NW 23:32:04 68° NW
SL-16 R/B 3.7 23:29:00 10° NW 23:32:03 27° WNW 23:32:03 27° WNW
Cosmos 2360 Rocket 3.0 23:30:52 10° NNW 23:34:45 44° NW 23:34:45 44° NW
Cosmos 2322 Rocket 3.7 23:36:38 10° NW 23:39:37 27° WNW 23:39:37 27° WNW
CZ-2D R/B 4.1 23:39:14 10° NE 23:43:03 19° E 23:43:03 19° E
MOS 1-B Rocket 4.3 23:37:07 10° NNE 23:43:15 68° WNW 23:43:26 68° W
Cosmos 2123 Rocket 4.1 23:45:08 71° NW 23:45:08 71° NW 23:50:50 10° N
SJ 16-02 3.5 23:52:41 20° ENE 23:52:41 20° ENE 23:54:31 10° NE
